Location: Grand Lay
(47.3253°N, 0.9468°E)
Time: 02:16:53
(UTC+00:00)

SJ 16-02 - Pass Details

Date: 18 January 2026
Orbit: 583 x 594 km, 75.0° (Epoch: 6 February)

Event Time Altitude Azimuth Distance (km) Brightness Sun altitude
Rises 06:42:03 0° 202° (SSW) 2,793 4.7 -9.2°
Reaches altitude 10° 06:44:15 10° 203° (SSW) 1,898 3.8 -8.9°
Maximum altitude 06:48:29 80° 291° (WNW) 599 1.2 -8.2°
Drops below altitude 10° 06:52:45 10° 19° (NNE) 1,915 3.9 -7.5°
Sets 06:54:59 0° 20° (NNE) 2,821 4.7 -7.2°
